Home > Weather > Hückelhoven > Past weeks

Flag for Germany Past Weather in Hückelhoven, North Rhine-Westphalia, Germany — Yesterday and Last 2 Weeks

Now
48 °F

Fog.


Feels Like: 48 °F
Forecast: 55 / 72 °F
Wind: 2 mph from North

Location: Maastricht Airport Zuid Limburg

Current Time: May 26, 2016 at 6:50:17 AM

Latest Report: May 26, 2016 at 6:25 AM


Visibility: 1 mi

Pressure: 30.01 "Hg

Humidity: 100%

Dew Point: 48 °F

Location of HückelhovenLocation

Past Weather in Hückelhoven — Graph

°F

Hückelhoven Temperature Yesterday

Maximum temperature yesterday: 61 °F (at 6:25 PM)
Minimum temperature yesterday: 46 °F (at 4:55 AM)
Average temperature yesterday: 53 °F

High & Low Weather Summary for the Past Weeks

 TemperatureHumidityPressure
High75 °F (May 11, 2:55 PM)100% (May 19, 1:25 AM)30.15 "Hg (May 19, 1:25 AM)
Low41 °F (May 15, 4:55 AM)33% (May 13, 6:25 PM)29.47 "Hg (May 12, 4:55 PM)
Average56 °F73%29.89 "Hg
* Reported May 11 5:25 AM — May 26 5:55 AM, Hückelhoven, Weather by CustomWeather, © 2016

Note: Actual official high and low records may vary slightly from our data, if they occured in-between our weather recording intervals... More about our weather records

Advertising

Hückelhoven Weather History for the Previous 24 Hours

Scroll right to see more
 ConditionsComfort  
Time TempWeatherWind HumidityBarometerVisibility
5:55 AM
Thu, May 26
48 °FFog.2 mph94%30.01 "Hg2 mi
5:25 AM48 °FFog.1 mph100%29.98 "Hg3 mi
4:55 AM48 °FFog.3 mph100%29.98 "Hg2 mi
4:25 AM48 °FClear.3 mph100%29.98 "Hg4 mi
3:55 AM50 °FClear.2 mph94%30.01 "Hg4 mi
3:25 AM50 °FClear.6 mph94%29.98 "Hg4 mi
2:55 AM52 °FPassing clouds.2 mph88%30.01 "HgN/A
2:25 AM50 °FPassing clouds.2 mph94%30.01 "HgN/A
1:55 AM52 °FClear.3 mph88%30.01 "HgN/A
1:25 AM54 °FClear.1 mph82%30.01 "HgN/A
12:55 AM54 °FClear.3 mph82%29.98 "HgN/A
12:25 AM55 °FClear.5 mph77%30.01 "HgN/A
11:55 PM
Wed, May 25
55 °FClear.3 mph82%30.01 "HgN/A
11:25 PM54 °FPassing clouds.1 mph88%29.98 "HgN/A
10:55 PM54 °FPassing clouds.2 mph88%29.98 "HgN/A
10:25 PM55 °FClear.No wind82%29.98 "HgN/A
9:55 PM55 °FClear.2 mph82%29.98 "HgN/A
9:25 PM55 °FClear.1 mph77%29.98 "HgN/A
8:55 PM57 °FClear.2 mph72%29.98 "HgN/A
8:25 PM57 °FClear.1 mph72%29.98 "HgN/A
7:55 PM59 °FCool.No wind68%29.98 "HgN/A
7:25 PM59 °FClear.3 mph68%29.98 "HgN/A
6:55 PM61 °FClear.2 mph59%29.95 "HgN/A
6:25 PM61 °FScattered clouds.2 mph59%29.95 "HgN/A
5:55 PM59 °FBroken clouds.5 mph63%29.98 "HgN/A
5:25 PM59 °FOvercast.5 mph63%29.98 "HgN/A
4:55 PM59 °FOvercast.5 mph68%29.98 "HgN/A
4:25 PM59 °FOvercast.2 mph68%29.98 "HgN/A
3:55 PM59 °FPartly sunny.3 mph63%29.98 "HgN/A
3:25 PM59 °FPartly sunny.1 mph63%29.98 "HgN/A
2:55 PM59 °FPartly sunny.5 mph68%29.98 "HgN/A
2:25 PM57 °FClear.6 mph72%29.98 "HgN/A
1:55 PM57 °FScattered clouds.3 mph72%29.98 "HgN/A
1:25 PM55 °FScattered clouds.3 mph77%29.98 "HgN/A
12:55 PM54 °FScattered clouds.2 mph77%29.98 "HgN/A
12:25 PM54 °FPassing clouds.3 mph77%29.98 "HgN/A
11:55 AM54 °FClear.2 mph72%30.01 "HgN/A
11:25 AM52 °FClear.3 mph77%29.98 "HgN/A
10:55 AM52 °FScattered clouds.3 mph82%29.98 "HgN/A
10:25 AM52 °FPassing clouds.3 mph82%30.01 "HgN/A
9:55 AM50 °FScattered clouds.3 mph88%30.01 "HgN/A
9:25 AM50 °FSprinkles. Partly sunny.2 mph82%30.01 "HgN/A
8:55 AM50 °FPassing clouds.2 mph88%30.01 "HgN/A
8:25 AM50 °FPassing clouds.2 mph82%30.01 "HgN/A
7:55 AM48 °FOvercast.2 mph87%30.01 "HgN/A
7:25 AM48 °FOvercast.5 mph87%29.98 "HgN/A
6:55 AM48 °FMostly cloudy.3 mph87%29.98 "HgN/A
6:25 AM46 °FMostly cloudy.2 mph93%29.98 "HgN/A
Weather by CustomWeather, © 2016

See weather overviewHow to use our weather pages